(256789) = 2008 CY45

Discovered at Catalina on 2008-02-02 by CSS.

Orbit

Orbit type: Main Belt

Note: WebGL enabled browser required.

epoch2024-03-31.0
epoch JD2460400.5
perihelion date2022-08-15.86179
perihelion JD2459807.36179
argument of perihelion (°)292.69194
ascending node (°)201.36665
inclination (°)4.23244
eccentricity0.1723399
perihelion distance (AU)1.9633429
Tisserand w.r.t. Jupiter3.5
ΔV w.r.t. Earth (km/sec)8.8
semimajor axis (AU)2.3721608
mean anomaly (°)160.00869
mean daily motion (°/day)0.26976630
aphelion distance (AU)2.781
period (years)3.65
P-vector [x]-0.69447684
P-vector [y]0.68426420
P-vector [z]0.22245095
Q-vector [x]-0.71901245
Q-vector [y]-0.64843743
Q-vector [z]-0.25009997
absolute magnitude17.05
phase slope0.15
uncertainty0
referenceMPEC 2024-C115
observations used497
oppositions13
arc length (days)8662
first opposition used1999
last opposition used2023
residual rms (arc-secs)0.69
perturbers coarse indicatorM-v
perturbers precise indicator003Ek
first observation date used1999-10-04.0
last observation date used2023-06-22.0
computer nameMPCLINUX
JD of orbit computation2456552.221489
perihelion JD uncertainty (days)7.9027E-05
argument of perihelion uncertainty (°)7.5067E-05
ascending node uncertainty (°)7.2655E-05
inclination uncertainty (°)7.1999E-06
eccentricity uncertainty 5.7439E-08
perihelion distance uncertainty (AU)1.3672E-07
Minimum Orbit Intersection Distances (in AU)
for orbit epoch: 2460200.5, reference: E2024-CB5
Mercury1.62717
Venus1.25343
Earth0.98123
Mars0.34969
Jupiter2.2716
Saturn6.85778
Uranus16.4011
Neptune27.2479

Observations

506 total observations over interval: 1999 10 04.45500 – 2023 06 22.311344
These data are available for download (format description).

Date (UT) J2000 RA J2000 Dec Magn Location Ref
1999 10 04.45500 01 59 48.71 +11 59 51.1 19.9 V 691 – Steward Observatory, Kitt Peak-Spacewatch MPS 240870
1999 10 04.47662 01 59 47.70 +11 59 43.5 19.7 V 691 – Steward Observatory, Kitt Peak-Spacewatch MPS 240870
1999 10 04.50027 01 59 46.61 +11 59 34.7 20.0 V 691 – Steward Observatory, Kitt Peak-Spacewatch MPS 240870
2001 04 30.35279 14 10 13.07 -11 03 20.2 19.9 V 691 – Steward Observatory, Kitt Peak-Spacewatch MPS 240870
2001 04 30.37387 14 10 11.88 -11 03 11.8 19.9 V 691 – Steward Observatory, Kitt Peak-Spacewatch MPS 240870
2001 04 30.39504 14 10 10.70 -11 03 02.5 20.0 V 691 – Steward Observatory, Kitt Peak-Spacewatch MPS 240870
2001 05 18.21802 13 56 37.30 -09 17 48.4 20.2 V 691 – Steward Observatory, Kitt Peak-Spacewatch MPS 240870
2001 05 18.23903 13 56 36.50 -09 17 42.7 21.0 V 691 – Steward Observatory, Kitt Peak-Spacewatch MPS 240870
2001 05 18.26006 13 56 35.74 -09 17 37.1 20.8 V 691 – Steward Observatory, Kitt Peak-Spacewatch MPS 240870
2006 09 15.19316 23 31 42.75 +00 30 01.3   691 – Steward Observatory, Kitt Peak-Spacewatch MPS 240870
2006 09 15.21044 23 31 41.88 +00 29 53.3   691 – Steward Observatory, Kitt Peak-Spacewatch MPS 240870
2006 09 15.22773 23 31 40.92 +00 29 46.9   691 – Steward Observatory, Kitt Peak-Spacewatch MPS 240870
2006 09 23.15375 23 24 37.09 -00 27 51.8 20.5 V 691 – Steward Observatory, Kitt Peak-Spacewatch MPS 240870
2006 09 23.17109 23 24 36.13 -00 27 59.9 20.4 V 691 – Steward Observatory, Kitt Peak-Spacewatch MPS 240870
2006 09 23.18844 23 24 35.18 -00 28 07.2 20.6 V 691 – Steward Observatory, Kitt Peak-Spacewatch MPS 240870
2008 01 01.50623 10 43 45.76 +01 44 11.1 20.3 V G96 – Mt. Lemmon Survey MPS 239638
2008 01 01.51273 10 43 45.91 +01 44 08.9 20.4 V G96 – Mt. Lemmon Survey MPS 239638
2008 01 01.51921 10 43 46.12 +01 44 07.5 20.4 V G96 – Mt. Lemmon Survey MPS 239638
2008 01 01.52560 10 43 46.30 +01 44 05.3 20.1 V G96 – Mt. Lemmon Survey MPS 239638
2008 02 02.34015 10 44 20.84 +01 07 26.1 18.7   704 – Lincoln Laboratory ETS, New Mexico MPS 240870
2008 02 02.35270 10 44 20.40 +01 07 26.9 19.3   704 – Lincoln Laboratory ETS, New Mexico MPS 240870
2008 02 02.36532 10 44 20.00 +01 07 30.5 19.2   704 – Lincoln Laboratory ETS, New Mexico MPS 240870
2008 02 02.37787 10 44 19.66 +01 07 32.9 19.5   704 – Lincoln Laboratory ETS, New Mexico MPS 240870
2008 02 02.39064 10 44 19.24 +01 07 34.5 19.5   704 – Lincoln Laboratory ETS, New Mexico MPS 240870
2008 02 02.43943 10 44 17.55 +01 07 42.8 19.5 V 703 – Catalina Sky Survey MPS 237722
2008 02 02.44661 10 44 17.30 +01 07 46.2 19.5 V 703 – Catalina Sky Survey MPS 237722
2008 02 02.45381 10 44 17.16 +01 07 47.1 19.1 V 703 – Catalina Sky Survey MPS 237722
2008 02 02.46101 10 44 16.98 +01 07 47.8 19.0 V 703 – Catalina Sky Survey MPS 237722
2008 02 09.39980 10 40 10.38 +01 35 10.8 19.4 V 703 – Catalina Sky Survey MPS 237722
2008 02 09.40785 10 40 10.05 +01 35 12.4 19.1 V 703 – Catalina Sky Survey MPS 237722
2008 02 09.41590 10 40 09.62 +01 35 15.2 18.8 V 703 – Catalina Sky Survey MPS 237722
2008 02 09.42397 10 40 09.33 +01 35 17.9 19.2 V 703 – Catalina Sky Survey MPS 237722
2008 02 10.29248 10 39 33.82 +01 39 33.8 19.1 V 691 – Steward Observatory, Kitt Peak-Spacewatch MPS 237722
2008 02 10.31024 10 39 33.02 +01 39 39.1 19.2 V 691 – Steward Observatory, Kitt Peak-Spacewatch MPS 237722
2008 02 10.32801 10 39 32.24 +01 39 44.5 19.1 V 691 – Steward Observatory, Kitt Peak-Spacewatch MPS 237722
2008 02 10.33233 10 39 31.99 +01 39 45.4 19.2   704 – Lincoln Laboratory ETS, New Mexico MPS 237722
2008 02 10.34444 10 39 31.47 +01 39 49.1 19.6   704 – Lincoln Laboratory ETS, New Mexico MPS 237722
2008 02 10.35653 10 39 30.91 +01 39 53.3 19.2   704 – Lincoln Laboratory ETS, New Mexico MPS 237722
2008 02 10.36863 10 39 30.41 +01 39 56.5 19.3   704 – Lincoln Laboratory ETS, New Mexico MPS 237722
2008 02 10.38075 10 39 29.86 +01 40 00.5 19.3   704 – Lincoln Laboratory ETS, New Mexico MPS 237722
2008 02 11.39925 10 38 46.50 +01 45 15.2 19.2   704 – Lincoln Laboratory ETS, New Mexico MPS 237722
2008 02 11.41157 10 38 45.88 +01 45 19.8 19.3   704 – Lincoln Laboratory ETS, New Mexico MPS 237722
2008 02 11.42344 10 38 45.35 +01 45 23.8 19.3   704 – Lincoln Laboratory ETS, New Mexico MPS 237722
2008 02 11.43546 10 38 44.80 +01 45 26.9 19.3   704 – Lincoln Laboratory ETS, New Mexico MPS 237722
2008 02 11.44734 10 38 44.28 +01 45 31.2 19.7   704 – Lincoln Laboratory ETS, New Mexico MPS 237722
2008 02 13.30854 10 37 22.19 +01 55 43.3 19.3 r 699 – Lowell Observatory-LONEOS MPS 237722
2008 02 13.33420 10 37 21.03 +01 55 52.0 19.0 r 699 – Lowell Observatory-LONEOS MPS 237722
2008 02 13.35988 10 37 19.76 +01 55 59.9 18.8 r 699 – Lowell Observatory-LONEOS MPS 237722
2008 02 13.38556 10 37 18.46 +01 56 10.2 19.0 r 699 – Lowell Observatory-LONEOS MPS 237722
2008 02 26.38896 10 26 35.09 +03 24 30.4 18.2   704 – Lincoln Laboratory ETS, New Mexico MPS 239638
2008 02 26.40063 10 26 34.48 +03 24 35.3 18.2   704 – Lincoln Laboratory ETS, New Mexico MPS 239638
2008 02 26.41232 10 26 33.86 +03 24 40.8 18.7   704 – Lincoln Laboratory ETS, New Mexico MPS 239638
2008 02 26.42395 10 26 33.23 +03 24 45.0 18.4   704 – Lincoln Laboratory ETS, New Mexico MPS 239638
2008 02 27.28697 10 25 49.62 +03 31 21.7 18.8 V G96 – Mt. Lemmon Survey MPS 239638
2008 02 27.29622 10 25 49.11 +03 31 25.8 18.6 V G96 – Mt. Lemmon Survey MPS 239638
2008 02 27.30544 10 25 48.64 +03 31 30.0 18.8 V G96 – Mt. Lemmon Survey MPS 239638
2008 02 27.31465 10 25 48.14 +03 31 34.3 18.7 V G96 – Mt. Lemmon Survey MPS 239638
2008 03 02.25904 10 22 30.36 +04 02 14.8 18.8 V 703 – Catalina Sky Survey MPS 240870
2008 03 02.26726 10 22 29.92 +04 02 18.3 18.8 V 703 – Catalina Sky Survey MPS 240870
2008 03 02.27549 10 22 29.56 +04 02 22.9 18.7 V 703 – Catalina Sky Survey MPS 240870
2008 03 02.28370 10 22 29.10 +04 02 26.4 18.6 V 703 – Catalina Sky Survey MPS 240870
2008 03 07.23531 10 18 34.89 +04 41 24.5 19.2 R 683 – Goodricke-Pigott Observatory, Tucson MPS 244095
2008 03 07.24871 10 18 34.43 +04 41 27.5 19.5 R 683 – Goodricke-Pigott Observatory, Tucson MPS 244095
2008 03 07.26210 10 18 33.88 +04 41 33.5 20.3 R 683 – Goodricke-Pigott Observatory, Tucson MPS 244095
2008 03 08.23207 10 17 50.82 +04 49 05.5 19.5 R 683 – Goodricke-Pigott Observatory, Tucson MPS 242263
2008 03 08.24546 10 17 50.13 +04 49 11.5 19.7 R 683 – Goodricke-Pigott Observatory, Tucson MPS 242263
2008 03 08.25886 10 17 49.52 +04 49 19.0 20.3 R 683 – Goodricke-Pigott Observatory, Tucson MPS 242263
2008 03 08.28811 10 17 48.19 +04 49 32.3 19.3 V 703 – Catalina Sky Survey MPS 242263
2008 03 08.29463 10 17 47.86 +04 49 35.5 19.0 V 703 – Catalina Sky Survey MPS 242263
2008 03 08.30117 10 17 47.58 +04 49 37.6 19.3 V 703 – Catalina Sky Survey MPS 242263
2008 03 08.30770 10 17 47.29 +04 49 40.7 18.9 V 703 – Catalina Sky Survey MPS 242263
2008 03 09.22885 10 17 07.71 +04 56 47.8 20.4 R 683 – Goodricke-Pigott Observatory, Tucson MPS 242263
2008 03 09.24224 10 17 07.01 +04 56 54.0 19.5 R 683 – Goodricke-Pigott Observatory, Tucson MPS 242263
2008 03 09.25563 10 17 06.48 +04 56 59.8 19.9 R 683 – Goodricke-Pigott Observatory, Tucson MPS 242263
2008 03 10.27528 10 16 23.42 +05 04 49.9 18.9   704 – Lincoln Laboratory ETS, New Mexico MPS 242263
2008 03 10.28635 10 16 22.90 +05 04 55.4 19.3   704 – Lincoln Laboratory ETS, New Mexico MPS 242263
2008 03 10.29743 10 16 22.39 +05 04 59.8 19.1   704 – Lincoln Laboratory ETS, New Mexico MPS 242263
2008 03 10.30852 10 16 21.89 +05 05 05.1 19.1   704 – Lincoln Laboratory ETS, New Mexico MPS 242263
2008 03 10.31960 10 16 21.39 +05 05 10.7 19.4   704 – Lincoln Laboratory ETS, New Mexico MPS 242263
2008 03 10.33826 10 16 20.64 +05 05 18.3 18.8   704 – Lincoln Laboratory ETS, New Mexico MPS 242263
2008 03 10.34931 10 16 20.04 +05 05 23.5 19.1   704 – Lincoln Laboratory ETS, New Mexico MPS 242263
2008 03 10.36133 10 16 19.58 +05 05 28.8 19.1   704 – Lincoln Laboratory ETS, New Mexico MPS 242263
2008 03 10.37261 10 16 19.12 +05 05 33.8 18.9   704 – Lincoln Laboratory ETS, New Mexico MPS 242263
2008 03 10.38362 10 16 18.63 +05 05 39.1 19.4   704 – Lincoln Laboratory ETS, New Mexico MPS 242263
2008 03 13.26317 10 14 25.80 +05 27 17.6 19.1 V G96 – Mt. Lemmon Survey MPS 242263
